[[{"header":{"parameterUnit":"m.s-1","parameterCategory":1,"la1":30.2991,"la2":30.254,"lo1":-89.0895,"lo2":-89.0444,"dy":0.0017,"dx":0.0017,"nx":28,"ny":28,"refTime":"2025-11-10T09:00:00:Z","depth":0,"parameterNumber":2,"parameterNumberName":"U-component_of_WINDS"},"data":[0,0,0,0,0,0,0,0,0,0,0,0,0,0,0,0,0,0,0,0,0,0,0,0,0,0,0,0,0,0,0,0,0,0,0,0,0,0,0,0,0,0,0,0,0,0,0,0,0,0,0,0,0,0,0,0,0,0,1.8723,1.8723,0,1.8732,1.8732,1.8732,1.8695,1.8694,1.8693,1.8692,1.87,1.8701,1.8702,0,0,0,0,0,0,0,0,0,0,0,0,0,1.8671,1.8672,1.8723,1.8723,1.8723,1.8732,1.8732,1.8732,1.8695,1.8694,1.8693,1.8692,1.8699,1.8701,1.8702,0,0,0,0,0,0,0,0,0,0,0,0,0,1.8688,1.8672,1.8723,1.8706,1.8704,1.8732,1.8732,1.8732,1.8696,1.8694,1.8692,1.8691,1.8699,1.8701,1.8702,1.8746,0,0,1.8708,1.8709,0,0,0,0,0,0,0,0,1.8687,1.869,1.8708,1.8707,1.8706,1.8711,1.8716,1.8737,1.8696,1.8699,1.8692,1.869,1.8705,1.8706,1.8711,1.8746,1.8747,1.8708,1.8709,1.871,1.8711,0,0,0,0,0,0,0,1.8686,1.8689,1.8726,1.8709,1.8707,1.8697,1.8697,1.872,1.8711,1.8699,1.8696,1.8698,1.8704,1.8709,1.8711,1.8747,1.8708,1.871,1.8711,1.8712,1.8814,1.8815,0,0,0,0,0,0,1.8687,1.8689,1.8726,1.8727,1.8692,1.8699,1.87,1.8711,1.871,1.8709,1.8699,1.8696,1.8707,1.8709,1.8711,1.8759,1.871,1.8712,1.8713,1.8812,1.8814,1.8816,0,0,0,0,0,0,1.8686,1.8691,1.8726,1.8707,1.871,1.8702,1.8714,1.8712,1.8717,1.8711,1.8709,1.8707,1.8706,1.8709,1.8737,1.8758,1.8713,1.8714,1.881,1.8813,1.8815,1.8856,0,0,0,0,0,0,1.8685,1.8691,1.8708,1.8708,1.8712,1.8752,1.8716,1.8713,1.8721,1.8717,1.8717,1.8716,1.8705,1.8734,1.8738,1.876,1.8716,1.8808,1.8811,1.8814,1.8853,1.886,1.8866,0,0,0,0,0,1.8683,1.872,1.8709,1.8714,1.8733,1.8754,1.8756,1.8743,1.8723,1.8739,1.8734,1.8716,1.8756,1.8737,1.8742,1.8764,1.8807,1.881,1.8814,1.885,1.8858,1.8866,0,0,0,0,0,0,1.8724,1.872,1.8708,1.8746,1.875,1.8747,1.8768,1.8753,1.8763,1.8758,1.8741,1.8742,1.8772,1.8771,1.8751,1.8804,1.8778,1.8782,1.8803,1.8811,1.8818,1.8816,1.8717,0,0,0,0,0,1.8738,1.8755,1.875,1.8784,1.8787,1.8777,1.8786,1.8775,1.8779,1.878,1.8778,1.8781,1.8794,1.8803,1.8815,1.8853,1.8851,1.8871,1.8877,1.8883,1.8886,1.8902,1.891,1.8828,1.8828,1.8828,0,0,1.8765,1.8765,1.8778,1.8792,1.8794,1.8811,1.8779,1.8799,1.8811,1.8783,1.8808,1.8807,1.881,1.8842,1.8856,1.8842,1.8908,1.8887,1.8892,1.8892,1.8907,1.8915,1.8921,1.883,1.883,1.8829,0,0,1.8824,1.8827,1.8854,1.8856,1.886,1.8852,1.8859,1.8858,1.8855,1.8881,1.8859,1.8873,1.8897,1.8898,1.8902,1.8959,1.8941,1.8963,1.8996,1.9012,1.9019,1.9024,1.9041,1.9048,1.8967,1.8968,1.8968,0,1.8858,1.8883,1.8869,1.889,1.8895,1.8871,1.8896,1.8899,1.8907,1.891,1.8895,1.8922,1.8923,1.8953,1.8967,1.8972,1.8977,1.8962,1.9019,1.9024,1.9029,1.9045,1.9052,1.897,1.897,1.8969,1.8969,0,1.8923,1.894,1.8962,1.8968,1.8976,1.8999,1.8987,1.8997,1.8986,1.8979,1.9004,1.9004,1.9013,1.902,1.901,1.9048,1.9039,1.9022,1.8994,1.904,1.9054,1.906,1.8973,1.8973,1.8972,1.8971,0,0,1.9007,1.9004,1.9012,1.9013,1.9014,1.9026,1.9047,1.9057,1.9064,1.907,1.9085,1.9104,1.9087,1.9092,1.9081,1.9096,1.9136,1.9076,1.9076,1.9085,1.9175,1.9185,1.9193,1.9125,1.9127,1.9127,1.9173,0,1.9062,1.9097,1.9084,1.912,1.9134,1.911,1.9127,1.9129,1.9124,1.9134,1.9128,1.9141,1.9119,1.9121,1.9135,1.9128,1.9154,1.9125,1.9137,1.9137,1.9134,1.9201,1.9213,1.9257,1.9179,1.918,1.9181,0,1.913,1.9137,1.9174,1.9169,1.9174,1.9191,1.9196,1.9207,1.9208,1.9203,1.9207,1.9192,1.921,1.9184,1.9207,1.9188,1.9192,1.919,1.9191,1.9189,1.916,1.9198,1.9271,1.9276,1.919,1.919,1.9189,0,1.9183,1.9202,1.9225,1.9227,1.9224,1.9235,1.9234,1.9233,1.9238,1.9243,1.9246,1.9254,1.9257,1.9262,1.9249,1.9232,1.9273,1.9247,1.9267,1.9267,1.9275,1.9274,1.9345,1.9282,1.9282,1.9282,1.9282,0,1.9244,1.9266,1.9248,1.9263,1.9286,1.9271,1.9294,1.929,1.9289,1.9301,1.9282,1.9293,1.9276,1.9285,1.9275,1.9294,1.9297,1.9291,1.9288,1.9291,1.9292,1.9292,1.9287,1.9284,1.9283,1.9283,1.9283,0,1.9306,1.9296,1.9319,1.9313,1.9312,1.9329,1.9323,1.9335,1.9328,1.9343,1.9345,1.9334,1.9343,1.9331,1.934,1.9333,1.9358,1.9352,1.9357,1.9354,1.9374,1.9371,1.9446,1.9454,1.9388,1.9389,1.939,0,1.9344,1.9361,1.9356,1.9362,1.9361,1.9372,1.9377,1.9362,1.9368,1.9368,1.9379,1.9387,1.9392,1.9408,1.94,1.9406,1.9397,1.9423,1.9398,1.94,1.9394,1.9392,1.9392,1.9427,1.9428,1.9429,1.9429,0,1.9411,1.9405,1.9412,1.9418,1.9423,1.9427,1.9429,1.9435,1.9419,1.9426,1.9435,1.9439,1.9447,1.9454,1.9457,1.9455,1.9438,1.9438,1.9442,1.9444,1.9446,1.9442,1.9368,1.9435,1.9435,1.9434,1.9434,1.9434,1.946,1.9472,1.947,1.9478,1.9478,1.948,1.9489,1.9483,1.949,1.9495,1.9486,1.9496,1.9494,1.9496,1.9496,1.9503,1.9492,1.9499,1.95,1.9501,1.9503,1.9447,1.9504,1.9504,1.9504,1.9503,1.9503,0,1.9523,1.952,1.9528,1.953,1.9536,1.9521,1.9522,1.9528,1.9537,1.9536,1.9541,1.955,1.9556,1.9548,1.9553,1.956,1.9552,1.9561,1.9559,1.9558,1.9514,1.9509,1.9567,1.9567,1.9567,1.9567,1.9567,1.9567,1.9557,1.9575,1.9568,1.9585,1.9581,1.9591,1.9592,1.9593,1.9592,1.9602,1.9607,1.9602,1.9597,1.9601,1.9605,1.9602,1.9603,1.9615,1.9609,1.9568,1.9561,1.9555,1.955,1.9616,1.9616,1.9651,1.9652,1.9652]},{"header":{"parameterUnit":"m.s-1","parameterCategory":1,"la1":30.2991,"la2":30.254,"lo1":-89.0895,"lo2":-89.0444,"dy":0.0017,"dx":0.0017,"nx":28,"ny":28,"refTime":"2025-11-10T09:00:00:Z","depth":0,"parameterNumber":3,"parameterNumberName":"V-component_of_WINDS"},"data":[0,0,0,0,0,0,0,0,0,0,0,0,0,0,0,0,0,0,0,0,0,0,0,0,0,0,0,0,0,0,0,0,0,0,0,0,0,0,0,0,0,0,0,0,0,0,0,0,0,0,0,0,0,0,0,0,0,0,5.323,5.3231,0,5.3285,5.3285,5.3286,5.3213,5.3211,5.3208,5.3206,5.3258,5.3262,5.3265,0,0,0,0,0,0,0,0,0,0,0,0,0,5.3058,5.3061,5.323,5.3231,5.3232,5.3285,5.3285,5.3286,5.3214,5.3211,5.3207,5.3204,5.3257,5.3261,5.3266,0,0,0,0,0,0,0,0,0,0,0,0,0,5.3124,5.3062,5.323,5.3202,5.32,5.3284,5.3285,5.3286,5.3214,5.321,5.3207,5.3203,5.3255,5.3261,5.3266,5.338,0,0,5.3284,5.3286,0,0,0,0,0,0,0,0,5.3121,5.3131,5.3205,5.3204,5.3202,5.3238,5.3244,5.3318,5.3215,5.3209,5.3205,5.3201,5.3254,5.326,5.3278,5.3382,5.3385,5.3284,5.3288,5.329,5.3292,0,0,0,0,0,0,0,5.3116,5.3128,5.3252,5.3207,5.3204,5.3185,5.319,5.3257,5.3253,5.3209,5.3204,5.3212,5.3252,5.3273,5.3279,5.3385,5.3284,5.3289,5.3293,5.3295,5.358,5.3584,0,0,0,0,0,0,5.3116,5.3125,5.325,5.3253,5.3151,5.3191,5.3197,5.323,5.3252,5.3251,5.3215,5.3208,5.3265,5.3273,5.3281,5.3411,5.329,5.3296,5.3299,5.3576,5.3581,5.3585,0,0,0,0,0,0,5.3112,5.3127,5.3248,5.3188,5.3201,5.3198,5.3237,5.3234,5.3254,5.3256,5.3254,5.3237,5.3262,5.3273,5.3355,5.3412,5.3298,5.3303,5.3571,5.3577,5.3583,5.3675,0,0,0,0,0,0,5.3108,5.3127,5.3171,5.3189,5.3205,5.3323,5.324,5.3238,5.3265,5.3256,5.3277,5.3276,5.326,5.3347,5.3361,5.3418,5.3308,5.3566,5.3574,5.3581,5.3667,5.3684,5.3698,0,0,0,0,0,5.3102,5.3196,5.3174,5.319,5.3261,5.3326,5.3335,5.3316,5.327,5.3313,5.3314,5.3275,5.3404,5.3356,5.3371,5.3431,5.3562,5.3571,5.358,5.366,5.3681,5.3698,0,0,0,0,0,0,5.3184,5.3198,5.3174,5.3277,5.3301,5.3314,5.3368,5.3339,5.3376,5.3367,5.334,5.3345,5.3432,5.344,5.3386,5.3539,5.3475,5.3488,5.353,5.355,5.3565,5.356,5.3313,0,0,0,0,0,5.3215,5.3268,5.3276,5.3366,5.338,5.3372,5.34,5.3383,5.3407,5.3416,5.3423,5.3446,5.3491,5.3522,5.3564,5.3669,5.367,5.3717,5.3733,5.3746,5.3756,5.3807,5.3827,5.3616,5.3616,5.3615,0,0,5.3277,5.3291,5.3327,5.3383,5.34,5.3453,5.3381,5.3442,5.348,5.3425,5.3502,5.3508,5.3532,5.3625,5.3666,5.3634,5.3815,5.3757,5.3768,5.3771,5.3819,5.3839,5.3857,5.3622,5.3621,5.362,0,0,5.3418,5.3436,5.3511,5.3529,5.3555,5.3549,5.3567,5.3584,5.3586,5.3663,5.3621,5.3666,5.3746,5.3763,5.3783,5.3927,5.3892,5.3942,5.4022,5.4073,5.4089,5.4104,5.4151,5.4169,5.3953,5.3953,5.3953,0,5.3492,5.3573,5.3552,5.3615,5.3639,5.3592,5.3665,5.3683,5.3722,5.3739,5.3703,5.3799,5.3812,5.3906,5.3941,5.396,5.3977,5.3938,5.4089,5.4103,5.4116,5.4161,5.418,5.3959,5.3958,5.3957,5.3957,0,5.366,5.3717,5.3773,5.3811,5.3842,5.391,5.3897,5.3931,5.3911,5.3908,5.3985,5.3999,5.4041,5.4063,5.4044,5.4153,5.4132,5.4094,5.4028,5.4142,5.4184,5.4201,5.3967,5.3965,5.3963,5.3962,0,0,5.3854,5.3878,5.3899,5.3914,5.3938,5.398,5.4045,5.4086,5.4113,5.4142,5.4192,5.4259,5.4223,5.4245,5.4227,5.4273,5.4381,5.4227,5.4227,5.4252,5.4497,5.4523,5.4543,5.4359,5.4362,5.4365,5.4493,0,5.3991,5.4103,5.4085,5.4192,5.4241,5.4196,5.4251,5.4271,5.427,5.431,5.4308,5.4354,5.4305,5.4317,5.436,5.4359,5.4429,5.435,5.4402,5.4404,5.4394,5.4566,5.4594,5.4715,5.451,5.4512,5.4515,0,5.4166,5.42,5.4311,5.4324,5.4344,5.4395,5.4429,5.4469,5.4489,5.4485,5.4509,5.4482,5.4543,5.4479,5.4561,5.4507,5.4528,5.4531,5.4535,5.4536,5.4464,5.4567,5.4753,5.477,5.4541,5.4539,5.4537,0,5.4291,5.4364,5.4439,5.4453,5.4472,5.4507,5.4517,5.4533,5.4558,5.4588,5.4603,5.4641,5.466,5.4688,5.4671,5.4627,5.4755,5.469,5.475,5.475,5.4776,5.4774,5.4963,5.4796,5.4796,5.4795,5.4795,0,5.4443,5.4512,5.4494,5.454,5.4615,5.4593,5.4667,5.467,5.4685,5.4729,5.4694,5.4735,5.4712,5.4752,5.4739,5.4806,5.4817,5.4812,5.4807,5.4813,5.4813,5.4824,5.4813,5.48,5.4799,5.4798,5.4797,0,5.4594,5.4585,5.4663,5.4674,5.4678,5.4732,5.474,5.4781,5.4777,5.4833,5.4844,5.4837,5.4881,5.4868,5.4917,5.4908,5.4991,5.4978,5.4984,5.4979,5.5038,5.5031,5.5238,5.5262,5.5083,5.5085,5.5086,0,5.469,5.4742,5.4757,5.4784,5.4796,5.484,5.4865,5.4845,5.4871,5.4897,5.4934,5.4975,5.5007,5.5079,5.5077,5.5112,5.5097,5.5167,5.5102,5.5104,5.5092,5.5088,5.5091,5.5178,5.5181,5.5182,5.5184,0,5.486,5.4852,5.489,5.4925,5.4955,5.4982,5.5006,5.5029,5.501,5.5042,5.5087,5.5111,5.5159,5.5198,5.523,5.5238,5.5206,5.5205,5.5219,5.5224,5.5224,5.522,5.5015,5.5199,5.5198,5.5196,5.5196,5.5195,5.4983,5.5025,5.5042,5.5083,5.5099,5.5121,5.5159,5.5159,5.5196,5.5233,5.5219,5.5269,5.5285,5.5324,5.5336,5.5373,5.5346,5.5369,5.5374,5.5379,5.5384,5.5221,5.538,5.5379,5.5379,5.5378,5.5378,0,5.5147,5.5155,5.5194,5.5227,5.5259,5.5229,5.5252,5.528,5.5325,5.5343,5.5374,5.5423,5.5461,5.5462,5.5496,5.5526,5.5512,5.5535,5.553,5.5532,5.5409,5.539,5.5545,5.5545,5.5545,5.5545,5.5545,5.5545,5.5236,5.5304,5.5298,5.5372,5.538,5.5428,5.5444,5.5463,5.5476,5.5533,5.5564,5.5564,5.5574,5.5609,5.5641,5.564,5.5653,5.5681,5.5674,5.5558,5.5541,5.5525,5.5507,5.5685,5.5685,5.5793,5.5794,5.5795]}]]